This demonstration page uses our WeatherBlox Daily Observations layout. Learn more.

Left ArrowRight Arrow

38.80484, -77.04692

Hourly Observations for August 6, 2022

Temp ( °F °C ) Dew Point ( °F °C ) Humidity (%) Winds ( mph kmh ) Pressure ( in mb ) Visibility ( mi km ) Precip ( " mm )
12:52 am 00:52 Mostly Cloudy 76 24.4 69 20.6 79 79 S 8 13 30.20 1023 10 16 0.00 0.00
1:52 am 01:52 Mostly Cloudy 75 23.9 69 20.6 82 82 SSW 9 15 30.20 1023 10 16 0.00 0.00
2:52 am 02:52 Mostly Cloudy 75 23.9 69 20.6 82 82 S 7 11 30.19 1022 10 16 0.00 0.00
3:52 am 03:52 Mostly Cloudy 74 23.3 70 21.1 88 88 SSW 3 6 30.19 1022 10 16 0.00 0.00
4:06 am 04:06 Mostly Cloudy 74 23.3 69 20.6 85 85 S 5 7 30.19 1022 10 16 0.00 0.00
4:52 am 04:52 Mostly Cloudy 74 23.3 69 20.6 85 85 S 5 7 30.19 1022 10 16 0.00 0.00
5:08 am 05:08 Cloudy 74 23.3 69 20.6 85 85 S 5 7 30.19 1022 10 16 0.00 0.00
5:15 am 05:15 Cloudy 74 23.3 69 20.6 85 85 SSE 6 9 30.20 1023 10 16 0.00 0.00
5:36 am 05:36 Mostly Cloudy 74 23.3 70 21.1 88 88 S 7 11 30.20 1023 10 16 0.00 0.00
5:52 am 05:52 Cloudy 74 23.3 70 21.1 88 88 S 6 9 30.20 1023 10 16 0.00 0.00
6:39 am 06:39 Mostly Cloudy 74 23.3 69 20.6 85 85 S 14 22 30.23 1024 10 16 0.00 0.00
6:52 am 06:52 Mostly Cloudy 74 23.3 70 21.1 88 88 S 12 19 30.23 1024 10 16 0.00 0.00
7:06 am 07:06 Mostly Cloudy 75 23.9 70 21.1 84 84 S 9 15 30.24 1024 10 16 0.00 0.00
7:15 am 07:15 Mostly Cloudy 75 23.9 69 20.6 82 82 SSW 10 17 30.25 1024 10 16 0.00 0.00
7:52 am 07:52 Mostly Cloudy 75 23.9 69 20.6 82 82 S 8 13 30.24 1024 10 16 0.00 0.00
8:21 am 08:21 Mostly Cloudy 76 24.4 69 20.6 79 79 SSW 12 19 30.25 1024 10 16 0.00 0.00
8:52 am 08:52 Mostly Cloudy 77 25 70 21.1 79 79 S 7 11 30.26 1025 10 16 0.00 0.00
8:57 am 08:57 Mostly Cloudy 78 25.6 70 21.1 76 76 SSW 5 7 30.26 1025 10 16 0.00 0.00
9:52 am 09:52 Mostly Cloudy 81 27.2 70 21.1 69 69 SW 7 11 30.25 1025 10 16 0.00 0.00
10:52 am 10:52 Mostly Cloudy 83 28.3 70 21.1 65 65 SSW 16 26 30.25 1024 10 16 0.00 0.00
11:52 am 11:52 Mostly Cloudy 84 28.9 72 22.2 67 67 S 14 22 30.24 1024 10 16 0.00 0.00
12:52 pm 12:52 Mostly Cloudy 85 29.4 71 21.7 63 63 SSW 13 20 30.24 1024 10 16 0.00 0.00
1:52 pm 13:52 Mostly Cloudy 87 30.6 72 22.2 61 61 S 13 20 30.22 1024 10 16 0.00 0.00
2:52 pm 14:52 Mostly Cloudy 87 30.6 74 23.3 65 65 S 12 19 30.21 1023 10 16 0.00 0.00
3:52 pm 15:52 Mostly Cloudy 88 31.1 73 22.8 61 61 S 13 20 30.19 1022 10 16 0.00 0.00
4:52 pm 16:52 Mostly Cloudy 87 30.6 74 23.3 65 65 S 12 19 30.17 1022 10 16 0.00 0.00
5:52 pm 17:52 Mostly Cloudy 87 30.6 72 22.2 61 61 SSW 12 19 30.17 1022 10 16 0.00 0.00
6:52 pm 18:52 Mostly Cloudy 85 29.4 73 22.8 68 68 S 14 22 30.17 1022 10 16 0.00 0.00
7:52 pm 19:52 Mostly Cloudy 85 29.4 75 23.9 72 72 S 16 26 30.19 1022 10 16 0.00 0.00
8:52 pm 20:52 Mostly Cloudy 84 28.9 68 20 59 59 SW 17 28 30.19 1023 10 16 0.00 0.00
9:52 pm 21:52 Mostly Cloudy 81 27.2 68 20 65 65 S 10 17 30.21 1023 10 16 0.00 0.00
10:52 pm 22:52 Mostly Cloudy 79 26.1 68 20 69 69 S 8 13 30.22 1023 10 16 0.00 0.00
11:52 pm 23:52 Mostly Cloudy 78 25.6 69 20.6 74 74 S 8 13 30.23 1024 10 16 0.00 0.00

Powered by AerisWeather